Volver al catálogo

XINGSHIDAI 8

ActivoCienciaSSO
NORAD 44889·PAYLOAD·🇨🇳 China
Este nombre de satélite aún no ha sido confirmado por fuentes oficiales.

Lanzado Dec 20, 2019 desde Taiyuan Satellite Launch Center

Loading…

Próximos Pases (próximas 24 horas)

TLE

ActualizadoSource: Space-Track

Época: Sep 14, 2026, 11:44 UTC

1 44889U 19093L   26257.48916529  .00001992  00000-0  18760-3 0  9997
2 44889  97.7494 334.6906 0013014 111.3987 248.8624 14.94913138365141

Sigue XINGSHIDAI 8 en tiempo real con AllMySat

Download on the App Store